IRIDIUM 63

Satellite information

Favourite Embed

Satellite Type and Status

PAYLOADIN ORBIT

Key statistics

Satellite IRIDIUM 63 at a glance.

Uptime

9891

Days in orbit

Revolutions

≈ 14.4

Per day

Orbit

LEO

Low Earth Orbit

Inclination

86.4

Latest

Satellite identification and parameters

Extended collection of information and parameters for IRIDIUM 63.

Object identification

Identified? True

Debris? False

Object name: IRIDIUM 63

International designator: 1998-021B

Object number (NORAD): 25286

Object ID (CCSDS): 25286

Country: UNITED STATES OF AMERICA (US)

Current information (Y/N): Y

RCS size: LARGE

Orbital parameters

Period: 100.243 minutes

Inclination: 86.3943 deg

SMA: 7148.186 km

Apoapsis: 771.807 km

Periapsis: 768.294 km

RAAN: 99.9622 deg

Eccentricy: 0.0002457

Argument of periapsis: 86.0334 deg

Mean anomaly: 274.1144 deg

Mean motion: 14.36511217 rev/day

Mean motion (dot): 0.00000657 rev/day2

B* drag term: 0.00021737 1/REarth

Two-line elements (TLE)

Creation date: May 6, 2025, 3:54 a.m.

Reference frame: TEME

Reference center: EARTH

Epoch: May 5, 2025, 4:32 p.m. UTC

TLE line 0: 0 IRIDIUM 63

TLE line 1: 1 25286U 98021B 25125.68918141 .00000657 00000-0 21737-3 0 9997

TLE line 2: 2 25286 86.3943 99.9622 0002457 86.0334 274.1144 14.36511217417744

Live tracking on map

Real-time ground track for satellite IRIDIUM 63.

In-orbit conjunctions

A list of the most updated potential collisions computed for object IRIDIUM 63.

Target Orbit TCA Probability of collision Miss distance Type
CZ-6A DEB SSO 2025-03-06 00:54:24 0.0002777574 268.0 (m) DEBRIS
CZ-6A DEB SSO 2024-11-28 08:44:46 0.0003215233 433.0 (m) DEBRIS
CZ-6A DEB LEO 2024-11-11 11:14:13 0.0001791025 746.0 (m) DEBRIS
DELTA 1 DEB SSO 2024-10-27 05:44:42 0.0001253068 450.0 (m) DEBRIS
FENGYUN 1C DEB SSO 2024-09-11 08:44:33 0.0001868376 437.0 (m) DEBRIS

Associated space launch

Iridium provides global mobile telecommunications services using a constellation of 66 low earth orbit satellites in a 86.4° inclined orbit. Although 77 satellites were originally envisioned for the system and spawned the name based on the 77th element in the periodic table, the system has been scaled back. Motorola's Satellite Communications Group designed and manufactured the Iridium satellites with Lockheed Martin providing the LM-700A spacecraft buses.

IRIDIUM 63 was lifted into orbit during the mission ‘Proton-K/17S40 | Iridium 62 to 68’, on board a Proton-K/17S40 space rocket.

The launch took place on April 7, 1998, 2:13 a.m. from 81/23 (81L).

For more information about the launch, click the button.

Launch to space Proton-K/17S40 | Iridium 62 to 68
Proton-K/17S40 | Iridium 62 to 68

Agency: N/A

Status: Launch Successful

Launch date: April 7, 1998, 2:13 a.m. UTC

Rocket: Proton-K/17S40

Launch pad: 81/23 (81L)

Location: Baikonur Cosmodrome, Republic of Kazakhstan

...

Latest news about this satellite

There are no fresh news available about this satellite. Check back as we update our databases every day.


Newsletter sign-up

Weekly statistics, charts and insights to help you stay on top of the space industry.